KJ7IVE-13 Weather Reports


Display with metric or nautical units.
time (UTC)temp
F
wind
direction
speed
MPH
gust
MPH
rain 1hr
in
rain 24hr
in
rain mn
in
humidity
%
barometer
mb
20260505022137 68 184 2.0 2.0 0.00 0.00 0.00 10 1007.0
20260505021633 68 170 5.0 7.0 0.00 0.00 0.00 10 1006.9
20260505021125 69 181 11.0 13.0 0.00 0.00 0.00 10 1007.2
20260505020620 69 184 5.0 6.0 0.00 0.00 0.00 10 1006.9
20260505020116 70 199 3.0 3.0 0.00 0.00 0.00 10 1006.8
20260505015613 70 163 5.0 7.0 0.00 0.00 0.00 10 1006.7
20260505015110 70 195 7.0 9.0 0.00 0.00 0.00 10 1007.2
20260505014607 71 166 4.0 5.0 0.00 0.00 0.00 10 1006.8
20260505014104 71 192 6.0 7.0 0.00 0.00 0.00 10 1006.7
20260505013601 71 188 14.0 20.0 0.00 0.00 0.00 10 1006.7
20260505013058 71 170 10.0 11.0 0.00 0.00 0.00 10 1006.7
20260505012556 71 203 5.0 7.0 0.00 0.00 0.00 10 1006.7
20260505012053 71 160 4.0 5.0 0.00 0.00 0.00 10 1006.7
20260505011549 71 202 4.0 6.0 0.00 0.00 0.00 10 1006.7
20260505011046 72 192 8.0 9.0 0.00 0.00 0.00 10 1006.8
20260505010541 72 226 8.0 9.0 0.00 0.00 0.00 10 1006.9
20260505010038 72 216 6.0 8.0 0.00 0.00 0.00 10 1006.8
20260505005534 72 221 7.0 9.0 0.00 0.00 0.00 10 1006.9
20260505005032 72 175 7.0 10.0 0.00 0.00 0.00 10 1007.0
20260505004529 72 189 8.0 11.0 0.00 0.00 0.00 10 1007.2
20260505004020 72 224 12.0 14.0 0.00 0.00 0.00 10 1007.2
20260505003518 72 204 11.0 13.0 0.00 0.00 0.00 10 1007.2
20260505003015 72 225 12.0 14.0 0.00 0.00 0.00 10 1007.3
20260505002510 73 205 6.0 7.0 0.00 0.00 0.00 10 1007.4
20260505002009 73 218 9.0 13.0 0.00 0.00 0.00 10 1007.3
20260505001506 73 148 11.0 14.0 0.00 0.00 0.00 10 1007.5
20260505001003 73 204 9.0 10.0 0.00 0.00 0.00 10 1007.2
20260505000500 73 215 7.0 8.0 0.00 0.00 0.00 10 1007.3
20260504235957 73 196 7.0 7.0 0.00 0.00 0.00 10 1007.5
20260504235454 73 239 7.0 9.0 0.00 0.00 0.00 10 1007.3
20260504234951 73 250 9.0 10.0 0.00 0.00 0.00 10 1007.5
20260504234448 73 243 8.0 9.0 0.00 0.00 0.00 10 1007.5
20260504233944 73 241 8.0 9.0 0.00 0.00 0.00 10 1007.5
20260504233440 73 228 11.0 14.0 0.00 0.00 0.00 10 1007.5
20260504232937 73 247 13.0 14.0 0.00 0.00 0.00 10 1007.5
20260504232434 73 247 10.0 11.0 0.00 0.00 0.00 10 1007.6
20260504231931 73 230 12.0 14.0 0.00 0.00 0.00 10 1007.4
20260504231428 73 241 13.0 15.0 0.00 0.00 0.00 10 1007.6
20260504230924 72 238 14.0 15.0 0.00 0.00 0.00 10 1007.5
20260504230421 73 251 9.0 10.0 0.00 0.00 0.00 10 1007.6
20260504225920 72 238 11.0 13.0 0.00 0.00 0.00 10 1007.6
20260504225416 72 239 11.0 11.0 0.00 0.00 0.00 10 1007.5
20260504224914 72 243 15.0 17.0 0.00 0.00 0.00 10 1007.6
20260504224410 72 248 14.0 18.0 0.00 0.00 0.00 10 1007.5
20260504223908 73 229 17.0 20.0 0.00 0.00 0.00 10 1007.5
20260504223403 73 225 14.0 16.0 0.00 0.00 0.00 10 1007.7
20260504222859 72 247 16.0 18.0 0.00 0.00 0.00 10 1007.4
20260504222356 71 248 10.0 13.0 0.00 0.00 0.00 10 1007.5
20260504221855 75 229 10.0 11.0 0.00 0.00 0.00 10 1007.6
20260504221350 74 226 5.0 6.0 0.00 0.00 0.00 10 1007.4
20260504220847 74 269 11.0 14.0 0.00 0.00 0.00 10 1007.8
20260504220344 74 212 7.0 13.0 0.00 0.00 0.00 10 1007.5
20260504215841 75 267 9.0 11.0 0.00 0.00 0.00 10 1007.5
20260504215337 74 206 1.0 2.0 0.00 0.00 0.00 10 1007.7
20260504214834 74 224 5.0 7.0 0.00 0.00 0.00 10 1008.1
20260504214331 74 238 5.0 6.0 0.00 0.00 0.00 10 1007.8
20260504213827 75 253 4.0 6.0 0.00 0.00 0.00 10 1008.0
20260504213323 74 252 2.0 2.0 0.00 0.00 0.00 10 1008.1
20260504212821 75 175 6.0 7.0 0.00 0.00 0.00 10 1008.2
20260504212317 74 230 6.0 7.0 0.00 0.00 0.00 10 1008.3
20260504211815 75 264 7.0 9.0 0.00 0.00 0.00 10 1008.5
20260504211310 74 271 8.0 9.0 0.00 0.00 0.00 10 1008.3
20260504210808 74 234 7.0 8.0 0.00 0.00 0.00 10 1008.4
20260504210305 74 274 7.0 9.0 0.00 0.00 0.00 10 1008.5
20260504205802 73 232 7.0 9.0 0.00 0.00 0.00 10 1008.4
20260504205300 74 275 5.0 6.0 0.00 0.00 0.00 10 1008.6
20260504204758 74 253 4.0 6.0 0.00 0.00 0.00 10 1008.8
20260504204256 74 260 4.0 5.0 0.00 0.00 0.00 10 1008.8
20260504203755 74 336 8.0 9.0 0.00 0.00 0.00 10 1008.6
20260504203253 74 252 5.0 6.0 0.00 0.00 0.00 10 1008.9
20260504202752 73 287 5.0 7.0 0.00 0.00 0.00 10 1008.8
20260504202250 73 268 5.0 9.0 0.00 0.00 0.00 10 1008.6
20260504201747 74 216 1.0 2.0 0.00 0.00 0.00 10 1008.9
20260504201244 73 241 3.0 3.0 0.00 0.00 0.00 10 1009.0
20260504200742 73 331 4.0 5.0 0.00 0.00 0.00 10 1009.1
20260504200237 73 266 8.0 9.0 0.00 0.00 0.00 10 1009.0
20260504195734 72 224 5.0 7.0 0.00 0.00 0.00 10 1009.1
20260504195230 73 245 8.0 9.0 0.00 0.00 0.00 10 1009.1
20260504194728 72 280 6.0 7.0 0.00 0.00 0.00 10 1009.3
20260504194223 72 222 5.0 7.0 0.00 0.00 0.00 10 1009.2
20260504193720 73 254 7.0 8.0 0.00 0.00 0.00 10 1009.3
20260504193218 73 246 5.0 6.0 0.00 0.00 0.00 10 1009.5
20260504192716 71 242 8.0 9.0 0.00 0.00 0.00 10 1009.5
20260504192213 72 246 7.0 8.0 0.00 0.00 0.00 10 1009.7
20260504191712 73 238 9.0 10.0 0.00 0.00 0.00 10 1009.5
20260504191208 71 241 4.0 5.0 0.00 0.00 0.00 10 1009.8
20260504190703 72 310 5.0 9.0 0.00 0.00 0.00 10 1009.7
20260504190200 72 273 7.0 9.0 0.00 0.00 0.00 10 1009.9
20260504185657 72 254 7.0 9.0 0.00 0.00 0.00 10 1009.8
20260504185153 72 289 5.0 7.0 0.00 0.00 0.00 10 1009.9
20260504184649 72 248 6.0 7.0 0.00 0.00 0.00 10 1009.9
20260504184144 72 309 2.0 3.0 0.00 0.00 0.00 10 1009.9
20260504183642 72 257 6.0 8.0 0.00 0.00 0.00 10 1009.8
20260504183139 73 260 6.0 7.0 0.00 0.00 0.00 10 1010.0
20260504182637 72 278 5.0 7.0 0.00 0.00 0.00 10 1010.1
20260504182135 72 254 8.0 9.0 0.00 0.00 0.00 10 1010.2
20260504181632 73 302 6.0 10.0 0.00 0.00 0.00 10 1009.9
20260504181129 71 220 3.0 3.0 0.00 0.00 0.00 10 1010.3
20260504180628 73 281 4.0 5.0 0.00 0.00 0.00 10 1010.3
20260504180126 71 212 2.0 2.0 0.00 0.00 0.00 10 1010.5
20260504175623 71 315 4.0 5.0 0.00 0.00 0.00 10 1010.5
20260504175120 72 170 5.0 7.0 0.00 0.00 0.00 10 1010.5
20260504174618 72 126 3.0 3.0 0.00 0.00 0.00 10 1010.7
20260504174114 72 95 3.0 5.0 0.00 0.00 0.00 10 1010.5
20260504173611 71 184 3.0 5.0 0.00 0.00 0.00 10 1010.5
20260504173109 71 226 5.0 7.0 0.00 0.00 0.00 10 1010.8
20260504172605 71 138 5.0 6.0 0.00 0.00 0.00 10 1010.6
20260504172102 71 189 0.0 1.0 0.00 0.00 0.00 10 1010.8
20260504171558 71 159 3.0 5.0 0.00 0.00 0.00 10 1010.6
20260504171055 70 163 2.0 3.0 0.00 0.00 0.00 10 1010.8
20260504170551 70 209 6.0 8.0 0.00 0.00 0.00 10 1010.8
20260504150935 65 137 7.0 9.0 0.00 0.00 0.00 10 1010.9
20260504150432 66 128 4.0 7.0 0.00 0.00 0.00 10 1011.0
20260504140852 63 169 5.0 9.0 0.00 0.00 0.00 10 1011.3
20260504140349 62 132 5.0 6.0 0.00 0.00 0.00 10 1011.1
20260504130812 53 134 2.0 2.0 0.00 0.00 0.00 10 1011.3
20260504130308 53 167 1.0 1.0 0.00 0.00 0.00 10 1011.3
20260504120232 53 105 2.0 2.0 0.00 0.00 0.00 10 1011.3
20260504110659 58 157 3.0 3.0 0.00 0.00 0.00 10 1011.3
20260504110155 58 126 3.0 5.0 0.00 0.00 0.00 10 1011.5
20260504100615 57 174 4.0 5.0 0.00 0.00 0.00 10 1011.0
20260504100114 56 153 4.0 5.0 0.00 0.00 0.00 10 1011.0
20260504081506 53 103 2.0 2.0 0.00 0.00 0.00 10 1010.0
20260504081001 53 131 2.0 2.0 0.00 0.00 0.00 10 1010.3
20260504080459 53 107 2.0 2.0 0.00 0.00 0.00 10 1010.3
20260504050305 62 110 6.0 7.0 0.00 0.00 0.00 10 1010.5
20260504045802 62 123 7.0 8.0 0.00 0.00 0.00 10 1010.8
20260504045257 62 110 5.0 7.0 0.00 0.00 0.00 10 1010.7
20260504044755 62 113 5.0 8.0 0.00 0.00 0.00 10 1010.6
20260504044252 62 130 5.0 7.0 0.00 0.00 0.00 10 1010.9
20260504043749 63 129 6.0 7.0 0.00 0.00 0.00 10 1010.8
20260504043246 62 121 6.0 7.0 0.00 0.00 0.00 10 1010.8
20260504042744 63 124 4.0 5.0 0.00 0.00 0.00 10 1010.6
20260504042239 63 156 2.0 2.0 0.00 0.00 0.00 10 1010.8
20260504041730 63 131 4.0 6.0 0.00 0.00 0.00 10 1010.8
20260504041226 63 158 1.0 1.0 0.00 0.00 0.00 10 1010.7
20260504040723 64 168 0.0 1.0 0.00 0.00 0.00 10 1010.8
20260504040220 64 160 1.0 2.0 0.00 0.00 0.00 10 1010.9
20260504035716 64 164 1.0 1.0 0.00 0.00 0.00 10 1010.8
20260504035214 65 146 2.0 3.0 0.00 0.00 0.00 10 1010.9
20260504034711 65 163 1.0 1.0 0.00 0.00 0.00 10 1010.7
20260504034208 65 169 2.0 2.0 0.00 0.00 0.00 10 1011.0
20260504033706 66 164 1.0 2.0 0.00 0.00 0.00 10 1010.6
20260504033203 66 153 2.0 2.0 0.00 0.00 0.00 10 1010.6
20260504032700 66 118 4.0 6.0 0.00 0.00 0.00 10 1010.8
20260504032157 66 109 5.0 6.0 0.00 0.00 0.00 10 1010.9
20260504031654 66 131 5.0 6.0 0.00 0.00 0.00 10 1010.5
20260504031150 67 153 3.0 3.0 0.00 0.00 0.00 10 1010.9
20260504030647 68 141 1.0 2.0 0.00 0.00 0.00 10 1010.7
20260504030143 68 147 1.0 2.0 0.00 0.00 0.00 10 1010.8
20260504025640 68 139 1.0 2.0 0.00 0.00 0.00 10 1010.9
20260504025137 69 137 3.0 3.0 0.00 0.00 0.00 10 1010.6
20260504024635 69 139 1.0 2.0 0.00 0.00 0.00 10 1010.8
20260504024131 69 126 2.0 3.0 0.00 0.00 0.00 10 1010.7
20260504023627 69 65 3.0 5.0 0.00 0.00 0.00 10 1010.9
20260504023124 69 52 4.0 5.0 0.00 0.00 0.00 10 1011.0
20260504022620 69 49 3.0 3.0 0.00 0.00 0.00 10 1010.5